Chino, CA

6:42 AM PST on January 22, 2018 (GMT -0800)
Chino

Weather History for KCNO - July, 2013

Change the Weather History Date:

Thursday, July 11, 2013

  Actual Average Record
Temperature  
Mean Temperature 76 °F -  
Max Temperature 84 °F 89 °F 104 °F (2012)
Min Temperature 69 °F 57 °F 54 °F (1998)
Cooling Degree Days 12    
Growing Degree Days 26 (Base 50)    
Moisture  
Dew Point 62 °F    
Average Humidity 65    
Maximum Humidity 75    
Minimum Humidity 43    
Precipitation  
Precipitation 0.00 in - - ()
Sea Level Pressure  
Sea Level Pressure 29.93 in    
Wind  
Wind Speed 5 mph (West)    
Max Wind Speed 13 mph    
Max Gust Speed -    
Visibility 8 miles    
Events Rain    
Averages and records for this station are not official NWS values.
T = Trace of Precipitation, MM = Missing Value Source: NWS Daily Summary

Daily Weather History Graph

Daily Weather History Graph

Search for Another Location

Airport or City:

Trip Planner

Search our weather history database for the weather conditions in past years. The results will help you decide how hot, cold, wet, or windy it might be!

Date:

Astronomy

Jul. 11, 2013 Rise Set
Actual Time 5:48 AM PDT 8:03 PM PDT
Civil Twilight 5:19 AM PDT 8:32 PM PDT
Nautical Twilight 4:44 AM PDT 9:07 PM PDT
Astronomical Twilight 4:06 AM PDT 9:45 PM PDT
Moon 9:00 AM PDT (7/11) 9:59 PM PDT (7/11)
Length of Visible Light 15h 12m
Length of Day
14h 15m
Waxing Crescent, 11% of the Moon is Illuminated
Jul 11
Waxing Crescent
Jul 15
First Quarter
Jul 22
Full
Jul 29
Last Quarter
Aug 6
New

Hourly Weather History & Observations

Time (PDT) Temp. Heat Index Dew Point Humidity Pressure Visibility Wind Dir Wind Speed Gust Speed Precip Events Conditions
12:53 AM 72.0 °F - 61.0 °F 68% 29.92 in 8.0 mi West 4.6 mph - 0.00 in Rain Light Rain
1:53 AM 71.1 °F - 60.1 °F 68% 29.93 in 8.0 mi WNW 8.1 mph - 0.00 in   Clear
2:53 AM 71.1 °F - 59.0 °F 66% 29.93 in 8.0 mi WNW 9.2 mph - N/A   Clear
3:53 AM 70.0 °F - 60.1 °F 71% 29.91 in 7.0 mi SSW 6.9 mph - N/A   Clear
4:53 AM 69.1 °F - 61.0 °F 75% 29.92 in 7.0 mi Calm Calm - N/A   Clear
5:53 AM 69.1 °F - 61.0 °F 75% 29.94 in 6.0 mi Calm Calm - N/A   Haze
6:53 AM 70.0 °F - 61.0 °F 73% 29.94 in 6.0 mi West 5.8 mph - N/A   Haze
7:53 AM 72.0 °F - 61.0 °F 68% 29.96 in 7.0 mi Calm Calm - N/A   Overcast
8:53 AM 73.0 °F - 61.0 °F 66% 29.97 in 6.0 mi Calm Calm - N/A   Haze
9:53 AM 72.0 °F - 62.1 °F 71% 29.98 in 7.0 mi South 3.5 mph - N/A   Overcast
10:53 AM 73.0 °F - 63.0 °F 71% 29.98 in 9.0 mi Calm Calm - 0.00 in Rain Light Rain
11:53 AM 75.9 °F - 62.1 °F 62% 29.97 in 6.0 mi Calm Calm - 0.00 in   Haze
12:53 PM 80.1 °F 80.9 °F 60.1 °F 50% 29.96 in 8.0 mi Calm Calm - N/A   Mostly Cloudy
1:53 PM 82.9 °F 83.3 °F 61.0 °F 47% 29.94 in 8.0 mi Calm Calm - N/A   Mostly Cloudy
2:53 PM 84.9 °F 84.8 °F 60.1 °F 43% 29.91 in 8.0 mi Calm Calm - N/A   Mostly Cloudy
3:53 PM 79.0 °F - 63.0 °F 58% 29.91 in 8.0 mi West 9.2 mph - N/A   Mostly Cloudy
4:53 PM 82.0 °F 83.4 °F 64.0 °F 54% 29.90 in 7.0 mi West 11.5 mph - N/A   Mostly Cloudy
5:53 PM 80.1 °F 81.7 °F 64.0 °F 58% 29.88 in 8.0 mi West 12.7 mph - N/A   Mostly Cloudy
6:53 PM 75.9 °F - 64.0 °F 67% 29.89 in 8.0 mi West 11.5 mph - N/A   Mostly Cloudy
7:53 PM 75.0 °F - 63.0 °F 66% 29.90 in 8.0 mi West 9.2 mph - N/A   Mostly Cloudy
8:53 PM 73.0 °F - 63.0 °F 71% 29.91 in 8.0 mi West 6.9 mph - N/A   Clear
9:53 PM 72.0 °F - 63.0 °F 73% 29.92 in 8.0 mi West 6.9 mph - N/A   Clear
10:53 PM 72.0 °F - 63.0 °F 73% 29.93 in 8.0 mi Calm Calm - N/A   Clear
11:53 PM 71.1 °F - 63.0 °F 75% 29.92 in 7.0 mi West 3.5 mph - N/A   Clear